Regional Weather Roundup
Issued by NWS

Home | Current Version | Previous Version | Graphics & Text | Print | Product List | Glossary On
Versions: 1 2 3 4 5 6 7 8 9 10 11 12 13 14 15 16 17 18 19 20 21 22 23 24 25 26 27 28 29 30 31 32 33 34 35 36 37 38 39 40 41 42 43 44 45 46 47 48 49 50
000
ASUS43 KOAX 211310
RWRNE

WEATHER ROUNDUP FOR NEBRASKA
NATIONAL WEATHER SERVICE OMAHA NE
700 AM CST WED FEB 21 2018

NOTES: SATELLITE DATA IS BEING USED TO AUGMENT CLOUD COVER ABOVE
       12000 FEET.
       "FAIR" INDICATES FEW OR NO CLOUDS BELOW 12,000 FEET WITH NO
       SIGNIFICANT WEATHER AND/OR OBSTRUCTIONS TO VISIBILITY.


NEZ001>004-019>022-054>056-211400-
NEBRASKA PANHANDLE

CITY           SKY/WX    TMP DP  RH WIND       PRES   REMARKS
SCOTTSBLUFF    PTCLDY    -9 -13  83 S6        30.25S WCI -22
ALLIANCE       CLEAR    -21 -26  77 SE3       30.24F
CHADRON        PTCLDY   -17 -25  66 W7        30.30S WCI -33
GORDON         FAIR     -13 -18  79 W3        30.27F
KIMBALL        CLEAR     -6 -11  79 SW10      30.19S WCI -24
SIDNEY         CLEAR     -8 -12  83 SW7       30.25R WCI -23
$$

NEZ057>060-069>072-079>082-211400-
SOUTHWEST NEBRASKA

CITY           SKY/WX    TMP DP  RH WIND       PRES   REMARKS
NORTH PLATTE   CLEAR     -7 -13  75 W6        30.39R WCI -20
IMPERIAL       CLEAR     -5  -8  87 CALM      30.34R
LEXINGTON      CLEAR      4  -1  79 NW3       30.44R
MCCOOK         CLEAR      2  -3  80 W5        30.44R WCI  -8
OGALLALA       CLEAR     -5 -10  80 W3        30.35S
$$

NEZ005>010-023>029-035>040-094-211400-
NORTH CENTRAL NEBRASKA

CITY           SKY/WX    TMP DP  RH WIND       PRES   REMARKS
VALENTINE      CLEAR    -13 -19  75 SW5       30.39S WCI -25
AINSWORTH      CLEAR     -5 -10  79 CALM      30.39R
BROKEN BOW     CLEAR     -3  -9  75 CALM      30.42R
O`NEILL        CLEAR     -8 -13  80 CALM      30.46S
THEDFORD       CLEAR     -8 -13  78 CALM      30.37S
$$

NEZ041-046>049-061>064-073>077-083>087-211400-
SOUTH CENTRAL NEBRASKA

CITY           SKY/WX    TMP DP  RH WIND       PRES   REMARKS
GRAND ISLAND   CLEAR      3  -2  79 SE3       30.52R
AURORA         CLOUDY     3  -2  81 CALM      30.53R
HASTINGS       CLOUDY     2  -2  83 CALM      30.52R
HEBRON         CLOUDY     7   1  78 CALM      30.57R
HOLDREGE       CLOUDY     2  -1  85 NE3       30.46R
KEARNEY        CLEAR      1  -4  79 CALM      30.49R
YORK           CLOUDY     3   1  92 CALM      30.55R
$$

NEZ011>018-030>034-042>045-211400-
NORTHEAST NEBRASKA

CITY           SKY/WX    TMP DP  RH WIND       PRES   REMARKS
NORFOLK        CLOUDY    -1  -5  82 SW3       30.52R
ALBION         PTCLDY     0  -6  76 N3        30.51R
BLAIR          CLEAR      6   2  82 E5        30.57R WCI  -2
COLUMBUS       CLEAR      3  -1  83 CALM      30.57R
FREMONT        CLEAR      7   1  78 CALM      30.59R
TEKAMAH        CLEAR      6   1  80 CALM      30.61R
WAYNE          PTCLDY     0  -4  82 CALM      30.54R
$$

NEZ050>053-065>068-078-088>093-211400-
SOUTHEAST NEBRASKA

CITY           SKY/WX    TMP DP  RH WIND       PRES   REMARKS
LINCOLN        CLOUDY     6   1  80 CALM      30.61R
OMAHA EPPLEY   PTCLDY     8   3  80 E3        30.62R
BEATRICE       CLOUDY     9   4  82 N7        30.57S WCI  -3
FALLS CITY     CLOUDY    12   5  73 N9        30.58R WCI   0
NEBRASKA CITY  CLOUDY    10   7  88 N5        30.58S WCI   1
PLATTSMOUTH    CLOUDY     9   5  83 N5        30.57F WCI   1
$$

NEZ044-045-051>053-067-211400-
OMAHA AREA

CITY           SKY/WX    TMP DP  RH WIND       PRES   REMARKS
OMAHA EPPLEY   PTCLDY     8   3  80 E3        30.62R
BLAIR          CLEAR      6   2  82 E5        30.57R WCI  -2
FREMONT        CLEAR      7   1  78 CALM      30.59R
MILLARD        CLEAR     10   3  74 CALM      30.61R
OFFUTT AFB     CLEAR      8   2  74 N8        30.59R WCI  -4
PLATTSMOUTH    CLOUDY     9   5  83 N5        30.57F WCI   1
WAHOO          FAIR       7   2  79 CALM      30.59R
$$




USA.gov is the U.S. government's official web portal to all federal, state and local government web resources and services.